Weather History for Lamar, CO

Change the Weather History Date:

Saturday, July 6, 2013

  Actual Average Record
Temperature  
Mean Temperature 84 °F 77 °F  
Max Temperature 100 °F 93 °F 107 °F (1964)
Min Temperature 68 °F 60 °F 52 °F (1997)
Degree Days  
Heating Degree Days 0 0  
Month to date heating degree days 0 0  
Since 1 June heating degree days 16 20  
Since 1 July heating degree days 0 0  
Cooling Degree Days 19 12  
Month to date cooling degree days 69 67  
Year to date cooling degree days 592 347  
Since 1 June cooling degree days 451 287  
Growing Degree Days 34 (Base 50)    
Moisture  
Dew Point 56 °F    
Average Humidity 43    
Maximum Humidity 68    
Minimum Humidity 17    
Precipitation  
Precipitation 0.21 in 0.07 in 1.71 in (1961)
Month to date precipitation 0.35 0.43  
Year to date precipitation 3.16 7.63  
Sea Level Pressure  
Sea Level Pressure 29.71 in    
Wind  
Wind Speed 7 mph (WNW)    
Max Wind Speed 45 mph    
Max Gust Speed 56 mph    
Visibility 9 miles    
Events Rain , Thunderstorm    
T = Trace of Precipitation, MM = Missing Value Source: NWS Daily Summary

Daily Weather History Graph

Daily Weather History Graph

Search for Another Location

Airport:

Trip Planner

Search our weather history database for the weather conditions in past years. The results will help you decide how hot, cold, wet, or windy it might be!

Date:

Astronomy

Jul. 06, 2013 Rise Set
Actual Time 5:34 AM MDT 8:16 PM MDT
Civil Twilight 5:03 AM MDT 8:47 PM MDT
Nautical Twilight 4:24 AM MDT 9:26 PM MDT
Astronomical Twilight 3:40 AM MDT 10:10 PM MDT
Moon 4:21 AM MDT (7/6) 7:00 PM MDT (7/6)
Length of Visible Light 15h 44m
Length of Day
14h 42m
Waning Crescent, 2% of the Moon is Illuminated
Jul 6
Waning Crescent
Jul 8
New
Jul 15
First Quarter
Jul 22
Full
Jul 29
Last Quarter

Hourly Weather History & Observations

Time (MDT) Temp. Heat Index Dew Point Humidity Pressure Visibility Wind Dir Wind Speed Gust Speed Precip Events Conditions
12:53 AM 78.1 °F - 55.9 °F 46% 29.63 in 10.0 mi SSW 17.3 mph - N/A   Clear
1:53 AM 78.1 °F - 55.9 °F 46% 29.63 in 10.0 mi SSW 16.1 mph - N/A   Clear
2:53 AM 75.9 °F - 57.0 °F 52% 29.62 in 10.0 mi SSW 15.0 mph - N/A   Clear
3:53 AM 73.9 °F - 57.0 °F 55% 29.63 in 10.0 mi SW 9.2 mph - N/A   Clear
4:53 AM 71.1 °F - 57.0 °F 61% 29.64 in 10.0 mi West 6.9 mph - N/A   Clear
5:53 AM 70.0 °F - 55.0 °F 59% 29.66 in 10.0 mi West 3.5 mph - N/A   Clear
6:53 AM 71.1 °F - 55.9 °F 59% 29.68 in 10.0 mi Calm Calm - N/A   Clear
7:53 AM 73.9 °F - 57.0 °F 55% 29.70 in 10.0 mi Calm Calm - N/A   Clear
8:53 AM 80.1 °F 80.2 °F 55.9 °F 43% 29.69 in 10.0 mi Calm Calm - N/A   Clear
9:53 AM 84.9 °F 83.6 °F 55.0 °F 36% 29.69 in 10.0 mi Variable 5.8 mph - N/A   Clear
10:53 AM 88.0 °F 85.7 °F 53.1 °F 30% 29.68 in 10.0 mi Calm Calm - N/A   Clear
11:53 AM 91.9 °F - 52.0 °F 26% 29.68 in 10.0 mi South 5.8 mph - N/A   Clear
12:53 PM 93.9 °F - 51.1 °F 23% 29.66 in 10.0 mi Calm Calm - N/A   Clear
1:53 PM 98.1 °F - 50.0 °F 20% 29.64 in 10.0 mi Variable 4.6 mph - N/A   Clear
2:53 PM 99.0 °F - 50.0 °F 19% 29.63 in 10.0 mi North 10.4 mph - N/A   Clear
3:53 PM 99.0 °F - 50.0 °F 19% 29.63 in 10.0 mi NNE 8.1 mph - N/A   Clear
4:53 PM 99.0 °F - 48.9 °F 18% 29.61 in 10.0 mi NNE 11.5 mph - N/A   Clear
5:53 PM 98.1 °F - 46.0 °F 17% 29.60 in 10.0 mi ENE 8.1 mph - N/A   Clear
6:53 PM 93.9 °F - 50.0 °F 22% 29.61 in 10.0 mi Calm Calm - N/A   Scattered Clouds
7:31 PM 89.6 °F - 51.8 °F 27% 29.84 in 8.0 mi West 34.5 mph 47.2 mph N/A Thunderstorm Overcast
7:38 PM 82.4 °F 81.7 °F 55.4 °F 39% 29.86 in 1.8 mi West 44.9 mph 56.4 mph N/A Thunderstorm Haze
7:45 PM 75.2 °F - 60.8 °F 61% 29.86 in 1.5 mi West 42.6 mph 52.9 mph 0.03 in Rain , Thunderstorm Light Rain
7:53 PM 72.0 °F - 63.0 °F 73% 29.73 in 1.0 mi WNW 36.8 mph 52.9 mph 0.13 in Rain , Thunderstorm Heavy Thunderstorms and Rain
7:58 PM 71.6 °F - 62.6 °F 73% 29.88 in 1.5 mi WNW 35.7 mph 46.0 mph 0.04 in Rain , Thunderstorm Heavy Thunderstorms and Rain
8:05 PM 71.6 °F - 62.6 °F 73% 29.89 in 3.0 mi WNW 34.5 mph 43.7 mph 0.07 in Rain , Thunderstorm Thunderstorms and Rain
8:53 PM 71.1 °F - 63.0 °F 75% 29.77 in 10.0 mi WNW 21.9 mph 28.8 mph 0.08 in Thunderstorm Scattered Clouds
9:04 PM 71.6 °F - 62.6 °F 73% 29.93 in 10.0 mi NW 21.9 mph 28.8 mph N/A   Mostly Cloudy
9:53 PM 73.0 °F - 62.1 °F 68% 29.78 in 10.0 mi North 13.8 mph - 0.00 in   Mostly Cloudy
10:53 PM 73.0 °F - 62.1 °F 68% 29.79 in 10.0 mi Calm Calm - N/A   Clear
11:53 PM 75.0 °F - 61.0 °F 62% 29.75 in 10.0 mi Calm Calm - N/A   Partly Cloudy